1497394800.67,58334,19.31,73522.3,-1.05,-6.43,-6.77,0,*5A
1497394801.92,58335,19.25,73508.3,-1.05,-6.13,-7.65,0,*5C
1497394803.16,58336,19.25,73516.0,-1.05,-7.19,-7.99,0,*57
1497394804.42,58337,19.31,73524.0,-1.07,-7.43,-9.11,0,*55
1497394805.66,58338,19.31,73516.0,-1.05,-9.31,-9.49,0,*5E
1497394806.87,58339,19.25,73520.3,-1.07,-8.71,-8.17,0,*52
1497394808.14,58340,19.31,73528.8,-1.05,-7.73,-7.35,0,*5C
1497394809.37,58341,19.31,73508.3,-1.07,-6.23,-6.81,0,*55
1497394810.58,58342,19.25,73510.8,-1.07,-5.55,-6.31,0,*5F
1497394811.83,58343,19.25,73528.0,-1.05,-5.61,-7.23,0,*59
1497394813.08,58344,19.25,73530.3,-1.05,-6.43,-8.11,0,*53
1497394814.3,58345,19.25,73554.3,-1.07,-8.29,-9.45,0,*52
1497394815.53,58346,19.25,73544.0,-1.05,-9.75,-9.93,0,*50
1497394816.77,58347,19.25,73540.3,-1.05,-9.41,-8.55,0,*5D
1497394818.02,58348,19.25,73528.8,-1.05,-8.17,-8.11,0,*50
1497394819.28,58349,19.31,73534.8,-1.05,-7.35,-8.03,0,*5D
1497394820.51,58350,19.31,73530.5,-1.07,-7.77,-9.27,0,*56
1497394821.72,58351,19.25,73536.8,-1.07,-8.89,-9.71,0,*5A
1497394822.93,58352,19.25,73542.8,-1.05,-9.19,-8.71,0,*52
1497394824.15,58353,19.25,73550.5,-1.07,-7.91,-5.97,0,*5A
1497394825.43,58354,19.25,73544.5,-1.05,-5.73,-5.27,0,*5A
1497394826.67,58355,19.25,73542.3,-1.05,-5.77,-6.39,0,*53
1497394827.9,58356,19.25,73538.0,-1.07,-6.31,-6.19,0,*51
1497394829.15,58357,19.31,73536.8,-1.05,-6.51,-5.89,0,*5E
1497394830.41,58358,19.25,73546.5,-1.07,-5.89,-5.65,0,*57
1497394831.65,58359,19.31,73550.5,-1.05,-5.77,-5.35,0,*50
1497394832.85,58360,19.31,73512.0,-1.07,-5.97,-4.99,0,*51
1497394834.08,58361,19.25,73512.3,-1.07,-5.81,-4.37,0,*53
1497394835.28,58362,19.31,73522.3,-1.07,-4.41,-3.35,0,*58
1497394836.5,58363,19.25,73504.8,-1.07,-3.47,-3.11,0,*5E
1497394837.7,58364,19.25,73512.5,-1.07,-3.23,-3.11,0,*5B
1497394838.95,58365,19.25,73520.3,-1.05,0.79,0.33,0,*57
1497394840.16,58366,19.25,73512.3,-0.99,2.43,1.83,0,*61
1497394841.37,58367,19.25,73520.5,-0.91,0.67,0.25,0,*61
1497394842.57,58368,19.25,73514.0,-0.85,-0.45,-0.69,0,*63
1497394843.79,58369,19.25,73520.3,-0.83,-1.29,-1.29,0,*6A
1497394845.03,58370,19.25,73494.3,-0.81,-1.83,-1.91,0,*63
1497394846.22,58371,19.31,73526.8,-0.81,-2.19,-2.19,0,*61
1497394847.44,58372,19.25,73488.3,-0.81,-2.47,-2.43,0,*66
1497394848.7,58373,19.31,73520.5,-0.85,-2.71,-2.75,0,*63
1497394849.97,58374,19.31,73506.3,-0.85,-2.47,-2.51,0,*67
1497394851.18,58375,19.25,73524.3,-0.85,-2.43,-2.43,0,*61
1497394852.45,58376,19.31,73526.3,-0.89,-2.55,-2.47,0,*6D
1497394853.65,58377,19.31,73530.5,-0.89,-2.39,-2.39,0,*6F
1497394854.89,58378,19.25,73526.3,-0.89,-2.39,-2.51,0,*6E
1497394856.1,58379,19.25,73528.5,-0.91,-2.75,-2.91,0,*62
1497394857.29,58380,19.25,73526.8,-0.91,-2.79,-2.87,0,*6F
1497394858.48,58381,19.25,73536.5,-0.91,-2.87,-3.39,0,*6B
1497394859.72,58382,19.25,73544.5,-0.93,-3.19,-3.59,0,*6A
1497394860.98,58383,19.25,73560.5,-0.93,-3.71,-3.43,0,*6E
1497394862.21,58384,19.25,73544.0,-0.93,-3.95,-3.67,0,*65
1497394863.43,58385,19.25,73550.3,-0.95,-3.55,-2.95,0,*62
1497394864.64,58386,19.25,73542.5,-0.95,-2.83,-2.59,0,*6B
1497394865.91,58387,19.25,73546.8,-0.93,-2.67,-2.67,0,*6B
1497394867.13,58388,19.25,73528.0,-0.95,-2.79,-2.71,0,*6A
1497394868.37,58389,19.25,73540.8,-0.95,-2.55,-2.55,0,*63
1497394869.64,58390,19.31,73532.0,-0.97,-2.47,-2.55,0,*6A
1497394870.89,58391,19.25,73536.0,-0.97,-2.63,-2.99,0,*6D
1497394872.1,58392,19.25,73538.0,-0.97,-2.83,-4.09,0,*6F
1497394873.3,58393,19.25,73532.5,-0.97,-4.37,-6.05,0,*69
1497394874.52,58394,19.25,73542.3,-0.97,-5.51,-6.09,0,*63
1497394875.74,58395,19.25,73548.5,-0.97,-3.39,-4.41,0,*64
1497394876.99,58396,19.25,73550.5,-0.93,-5.73,-5.77,0,*6F
1497394878.21,58397,19.25,73550.8,-0.93,-6.43,-6.69,0,*62
1497394879.44,58398,19.25,73542.8,-0.89,-7.49,-5.69,0,*6E
1497394880.7,58399,19.25,73546.3,-0.89,-6.23,-5.31,0,*6F
1497394881.91,58400,19.25,73556.0,-0.91,-4.77,-4.17,0,*67
1497394883.14,58401,19.25,73520.8,-0.91,-4.69,-4.89,0,*6E
1497394884.41,58402,19.25,73538.8,-0.93,-5.77,-5.27,0,*64
1497394885.65,58403,19.25,73526.0,-0.93,-4.93,-4.25,0,*6D
1497394886.87,58404,19.25,73524.3,-0.93,-3.83,-3.91,0,*64
1497394888.11,58405,19.25,73536.0,-0.93,-3.67,-3.27,0,*62
1497394889.33,58406,19.25,73534.3,-0.93,-3.19,-3.03,0,*6E
1497394890.54,58407,19.25,73536.0,-0.93,-3.15,-3.19,0,*68
1497394891.75,58408,19.25,73532.3,-0.93,-3.19,-3.31,0,*61
1497394892.99,58409,19.25,73538.5,-0.93,-3.19,-3.59,0,*6E
1497394894.2,58410,19.25,73550.5,-0.95,-3.15,-3.55,0,*60
1497394895.42,58411,19.25,73550.8,-0.95,-3.55,-4.57,0,*60
1497394896.66,58412,19.25,73556.0,-0.93,-4.49,-7.43,0,*69
1497394897.88,58413,19.25,73554.3,-0.95,-8.97,-11.97,0,*5F
1497394899.11,58414,19.25,73558.3,-0.95,-13.01,-13.23,0,*60
1497394900.36,58415,19.25,73544.5,-0.97,-11.59,-10.49,0,*63
1497394901.61,58416,19.25,73530.5,-0.99,-11.29,-7.95,0,*5E
1497394902.83,58417,19.25,73542.3,-0.99,-6.23,-4.41,0,*69
1497394904.07,58418,19.25,73536.3,-1.01,-3.75,-3.55,0,*52
1497394905.29,58419,19.25,73540.5,-1.01,-3.23,-3.39,0,*5A
1497394906.52,58420,19.25,73542.0,-1.01,-3.27,-4.29,0,*52
1497394907.74,58421,19.25,73544.3,-1.03,-4.99,-5.19,0,*51
1497394908.96,58422,19.25,73534.0,-0.99,-5.69,-6.13,0,*67
1497394910.2,58423,19.25,73550.0,-1.01,-7.31,-8.93,0,*5F
1497394911.44,58424,19.25,73544.3,-1.01,-10.57,-10.27,0,*58
1497394912.68,58425,19.25,73548.5,-1.03,-15.25,-10.71,0,*58
1497394913.91,58426,19.25,73532.5,-1.03,-12.97,-7.77,0,*65
1497394915.14,58427,19.25,73528.3,-1.03,-6.43,-5.27,0,*5F
1497394916.33,58428,19.25,73520.3,-1.03,-4.49,-4.05,0,*59
1497394917.55,58429,19.25,73530.3,-1.05,-3.27,-3.19,0,*5B
1497394918.77,58430,19.25,73530.5,-1.05,-2.95,-2.79,0,*5C
1497394920.05,58431,19.25,73508.5,-1.05,-2.71,-2.67,0,*58
1497394921.29,58432,19.25,73514.0,-1.05,-2.71,-2.79,0,*54
1497394922.54,58433,19.25,73518.8,-1.03,-2.67,-2.55,0,*5A
1497394923.76,58434,19.25,73536.5,-1.03,-2.55,-2.43,0,*5B
1497394925.04,58435,19.25,73540.0,-1.01,-2.47,-2.67,0,*5D
1497394926.26,58436,19.25,73538.0,-1.01,-3.15,-3.75,0,*5A
1497394927.51,58437,19.25,73526.8,-1.01,-4.45,-5.23,0,*5C
1497394928.76,58438,19.25,73538.5,-1.01,-5.81,-6.35,0,*5E
1497394930.01,58439,19.25,73532.3,-1.01,-7.05,-6.39,0,*5D
1497394931.28,58440,19.25,73534.0,-1.01,-6.63,-5.31,0,*59
1497394932.53,58441,19.25,73532.8,-1.01,-5.23,-4.29,0,*57
1497394933.73,58442,19.25,73542.8,-1.03,-4.37,-3.91,0,*56
1497394934.93,58443,19.25,73554.3,-1.03,-3.83,-3.95,0,*5B
1497394936.13,58444,19.25,73552.0,-1.03,-4.05,-4.61,0,*59
1497394937.35,58445,19.25,73542.5,-1.03,-4.49,-4.69,0,*58
1497394938.54,58446,19.25,73542.0,-1.03,-4.37,-4.37,0,*59
1497394939.75,58447,19.25,73548.3,-1.03,-4.21,-3.95,0,*50
1497394940.96,58448,19.25,73544.0,-1.03,-4.09,-3.67,0,*58
1497394942.18,58449,19.25,73516.3,-1.03,-3.43,-3.19,0,*59
1497394943.38,58450,19.25,73516.8,-1.03,-3.07,-2.95,0,*54
1497394944.65,58451,19.25,73528.8,-1.05,-2.63,-2.55,0,*5C
1497394945.9,58452,19.25,73536.0,-1.05,-2.43,-2.51,0,*59
1497394947.13,58453,19.25,73556.5,-1.03,-2.39,-2.51,0,*53
1497394948.35,58454,19.25,73556.5,-1.03,-2.95,-3.55,0,*57
1497394949.57,58455,19.25,73550.8,-1.01,-3.75,-4.17,0,*5A
1497394950.83,58456,19.25,73530.5,-1.01,-3.91,-4.69,0,*5A
1497394952.08,58457,19.25,73540.5,-1.01,-5.31,-6.01,0,*5B
1497394953.27,58458,19.25,73536.8,-1.03,-6.05,-6.05,0,*56
1497394954.5,58459,19.25,73554.8,-1.03,-5.51,-4.81,0,*5B
1497394955.7,58460,19.25,73554.8,-1.03,-4.65,-4.29,0,*55
1497394956.91,58461,19.25,73542.3,-1.01,-4.45,-3.35,0,*5E
1497394958.15,58462,19.25,73532.3,-1.01,-3.63,-3.23,0,*59
1497394959.38,58463,19.25,73534.5,-1.01,-3.03,-2.99,0,*5E
1497394960.63,58464,19.25,73530.0,-1.01,-2.75,-3.35,0,*5E
1497394961.86,58465,19.25,73548.3,-1.01,-3.27,-3.91,0,*57
1497394963.11,58466,19.25,73550.0,-1.01,-3.75,-4.01,0,*5D
1497394964.35,58467,19.25,73552.5,-1.01,-3.87,-3.55,0,*57
1497394965.6,58468,19.25,73552.8,-1.01,-3.75,-3.55,0,*55
1497394966.85,58469,19.25,73532.8,-1.01,-3.43,-3.87,0,*5E
1497394968.1,58470,19.25,73526.5,-1.01,-3.43,-4.33,0,*5E
1497394969.36,58471,19.25,73522.0,-1.01,-4.81,-6.23,0,*55
1497394970.63,58472,19.25,73550.0,-1.01,-7.39,-7.73,0,*52
1497394971.83,58473,19.25,73526.3,-0.99,-9.01,-6.59,0,*6F
1497394973.05,58474,19.25,73536.3,-0.99,-6.01,-5.23,0,*69
1497394974.27,58475,19.25,73544.8,-0.99,-6.47,-5.61,0,*6C
1497394975.55,58476,19.25,73546.0,-1.01,-6.63,-4.89,0,*5E
1497394976.77,58477,19.25,73538.8,-1.01,-4.17,-4.65,0,*5C
1497394977.97,58478,19.25,73538.8,-0.99,-4.05,-4.13,0,*61
1497394979.18,58479,19.25,73546.0,-0.99,-3.67,-4.13,0,*63
1497394980.38,58480,19.25,73546.3,-0.99,-4.05,-4.53,0,*62
1497394981.6,58481,19.25,73552.0,-0.99,-4.53,-5.89,0,*66
1497394982.86,58482,19.25,73552.8,-1.01,-7.61,-10.31,0,*60
1497394984.1,58483,19.25,73546.8,-1.01,-8.37,-7.69,0,*56
1497394985.35,58484,19.25,73560.0,-0.99,-7.27,-7.43,0,*67
1497394986.59,58485,19.25,73540.3,-1.03,-7.99,-7.65,0,*55
1497394987.84,58486,19.25,73544.8,-1.03,-5.89,-5.73,0,*50
1497394989.06,58487,19.25,73548.3,-1.03,-5.11,-5.39,0,*5E
1497394990.3,58488,19.25,73542.3,-1.03,-4.93,-5.27,0,*55
1497394991.55,58489,19.25,73542.3,-1.03,-4.81,-5.27,0,*57
1497394992.82,58490,19.25,73550.3,-1.01,-4.69,-5.11,0,*5E
1497394994.1,58491,19.25,73554.8,-1.01,-5.31,-5.31,0,*51
1497394995.38,58492,19.25,73566.3,-1.01,-5.31,-5.23,0,*51
1497394996.64,58493,19.25,73566.8,-1.03,-5.89,-5.11,0,*50
1497394997.89,58494,19.25,73540.5,-1.01,-6.35,-4.69,0,*5F
1497394999.15,58495,19.25,73532.8,-1.01,-4.89,-3.47,0,*50
1497395000.38,58496,19.25,73546.0,-1.03,-3.27,-2.63,0,*55
1497395001.63,58497,19.25,73564.5,-1.01,-2.51,-2.15,0,*57
1497395002.88,58498,19.25,73556.3,-1.01,-2.23,-2.03,0,*5A
1497395004.1,58499,19.25,73564.5,-1.01,-2.15,-2.27,0,*58
1497395005.37,58500,19.25,73562.5,-1.01,-2.11,-2.03,0,*5B
1497395006.65,58501,19.25,73562.3,-1.01,-2.11,-2.11,0,*59
1497395007.87,58502,19.25,73556.3,-0.99,-2.15,-2.03,0,*6D
1497395009.06,58503,19.25,73560.8,-0.99,-2.23,-2.15,0,*6E
1497395010.27,58504,19.25,73566.5,-0.97,-2.35,-2.43,0,*63
1497395011.48,58505,19.25,73572.3,-0.99,-2.63,-2.79,0,*66
1497395012.68,58506,19.25,73574.3,-0.99,-3.03,-3.27,0,*68
1497395013.86,58507,19.25,73574.3,-0.99,-2.91,-3.35,0,*60
1497395015.06,58508,19.25,73572.0,-0.99,-3.15,-3.35,0,*62
1497395016.25,58509,19.25,73574.0,-0.99,-3.35,-3.27,0,*62
1497395017.45,58510,19.25,73554.0,-0.99,-3.39,-3.39,0,*69
1497395018.66,58511,19.25,73540.8,-0.99,-3.27,-3.67,0,*6C
1497395019.86,58512,19.25,73546.3,-0.99,-3.35,-4.53,0,*6C
1497395021.07,58513,19.25,73550.3,-0.99,-4.41,-7.27,0,*69
1497395022.32,58514,19.25,73558.8,-0.97,-7.53,-11.89,0,*53
1497395023.55,58515,19.25,73574.8,-0.99,-11.07,-13.65,0,*6A
1497395024.82,58516,19.25,73566.0,-1.01,-15.53,-15.39,0,*53
1497395026.07,58517,19.25,73544.3,-1.01,-14.05,-13.93,0,*56
1497395027.28,58518,19.25,73546.3,-1.03,-13.43,-14.11,0,*53
1497395028.49,58519,19.25,73544.0,-1.03,-12.93,-12.97,0,*56
1497395029.72,58520,19.25,73550.5,-1.03,-11.67,-12.97,0,*54
1497395030.98,58521,19.25,73558.8,-1.05,-12.65,-13.65,0,*5E
1497395032.19,58522,19.25,73558.0,-1.07,-15.29,-16.83,0,*5D
1497395033.43,58523,19.25,73550.3,-1.07,-15.75,-14.75,0,*5E
1497395034.64,58524,19.25,73534.0,-1.07,-10.89,-10.05,0,*5C
1497395035.86,58525,19.25,73550.3,-1.07,-7.77,-8.41,0,*53
1497395037.09,58526,19.25,73546.0,-1.11,-8.71,-7.39,0,*5E
1497395038.28,58527,19.25,73542.8,-1.11,-8.21,-6.73,0,*55
1497395039.5,58528,19.25,73548.3,-1.11,-6.23,-7.53,0,*55
1497395040.69,58529,19.25,73544.3,-1.11,-6.89,-8.75,0,*5F
1497395041.91,58530,19.25,73554.5,-1.11,-7.77,-8.41,0,*50
1497395043.11,58531,19.25,73554.3,-1.11,-8.45,-9.93,0,*51
1497395044.35,58532,19.25,73548.8,-1.13,-10.57,-12.47,0,*59
1497395045.56,58533,19.25,73558.8,-1.11,-11.23,-12.21,0,*58
1497395046.77,58534,19.25,73552.0,-1.11,-10.49,-10.49,0,*5E
1497395047.99,58535,19.25,73550.3,-1.11,-10.79,-8.55,0,*68
1497395049.21,58536,19.25,73550.5,-1.11,-8.41,-7.01,0,*57
1497395050.44,58537,19.25,73566.5,-1.11,-7.95,-5.55,0,*53
1497395051.67,58538,19.25,73556.5,-1.11,-5.27,-4.25,0,*51
1497395052.87,58539,19.25,73562.8,-1.07,-4.61,-4.49,0,*5E
1497395054.08,58540,19.25,73556.0,-1.11,-4.49,-4.77,0,*50
1497395055.34,58541,19.25,73546.5,-1.13,-5.47,-5.85,0,*50
1497395056.58,58542,19.25,73540.3,-1.13,-5.43,-6.27,0,*5C
1497395057.84,58543,19.25,73544.8,-1.13,-5.47,-5.85,0,*52
1497395059.12,58544,19.25,73558.3,-1.13,-5.31,-5.03,0,*5A
1497395060.37,58545,19.25,73554.5,-1.15,-4.89,-5.31,0,*5E
1497395061.6,58546,19.25,73556.5,-1.15,-6.47,-7.01,0,*5C
1497395062.84,58547,19.25,73544.5,-1.15,-9.57,-6.23,0,*52
1497395064.05,58548,19.25,73536.8,-1.17,-6.31,-4.93,0,*59
1497395065.28,58549,19.25,73544.8,-1.15,-4.81,-4.25,0,*5E
1497395066.49,58550,19.25,73554.8,-1.15,-4.05,-3.47,0,*59
1497395067.72,58551,19.25,73574.8,-1.15,-3.63,-3.39,0,*56
1497395068.94,58552,19.25,73562.5,-1.15,-3.67,-3.39,0,*51
1497395070.17,58553,19.25,73538.3,-1.15,-3.47,-3.27,0,*5D
1497395071.37,58554,19.25,73524.3,-1.17,-3.27,-2.95,0,*56
1497395072.63,58555,19.25,73502.8,-1.15,-2.71,-2.71,0,*5D
1497395073.87,58556,19.25,73540.0,-1.15,-2.59,-2.59,0,*5E
1497395075.13,58557,19.25,73530.5,-1.15,-2.75,-2.71,0,*5B
1497395076.36,58558,19.25,73528.3,-1.15,-2.87,-2.71,0,*59
1497395077.63,58559,19.25,73530.5,-1.13,-2.75,-2.71,0,*53
1497395078.85,58560,19.25,73538.8,-1.11,-2.59,-2.83,0,*58
1497395080.04,58561,19.25,73542.8,-1.11,-2.91,-3.11,0,*57
1497395081.24,58562,19.25,73526.8,-1.11,-3.03,-3.03,0,*5D
1497395082.46,58563,19.25,73550.3,-1.13,-3.11,-3.15,0,*5A
1497395083.68,58564,19.25,73544.8,-1.13,-3.15,-3.11,0,*5D
1497395084.88,58565,19.25,73532.5,-1.11,-3.11,-3.07,0,*5D
1497395086.13,58566,19.25,73538.5,-1.11,-3.47,-3.43,0,*5D
1497395087.37,58567,19.25,73538.8,-1.13,-3.47,-3.15,0,*5D
1497395088.6,58568,19.25,73538.8,-1.13,-3.15,-3.11,0,*51
1497395089.82,58569,19.25,73540.5,-1.13,-2.99,-3.03,0,*56
1497395091.02,58570,19.25,73538.3,-1.11,-2.83,-3.07,0,*53
1497395092.21,58571,19.25,73546.8,-1.11,-3.11,-3.35,0,*59
1497395093.48,58572,19.25,73552.0,-1.13,-3.47,-3.55,0,*5D
1497395094.71,58573,19.25,73522.0,-1.13,-3.75,-4.41,0,*5F
1497395095.97,58574,19.25,73518.0,-1.13,-4.25,-5.15,0,*5A
1497395097.22,58575,19.25,73532.8,-1.13,-4.65,-5.23,0,*5A
1497395098.47,58576,19.25,73532.0,-1.13,-5.19,-8.25,0,*58
1497395099.68,58577,19.25,73536.5,-1.11,-8.29,-12.29,0,*62
1497395100.96,58578,19.25,73538.8,-1.13,-16.23,-15.81,0,*5F
1497395102.25,58579,19.25,73542.5,-1.13,-14.93,-16.09,0,*54
1497395103.48,58580,19.25,73550.5,-1.13,-16.83,-14.61,0,*5D
1497395104.72,58581,19.25,73548.5,-1.15,-13.93,-11.67,0,*5D
1497395105.93,58582,19.25,73524.0,-1.17,-10.57,-10.01,0,*56
1497395107.15,58583,19.25,73524.3,-1.17,-10.01,-11.73,0,*50
1497395108.43,58584,19.19,73538.0,-1.19,-10.75,-11.55,0,*5E
1497395109.66,58585,19.25,73524.3,-1.19,-11.23,-11.01,0,*5C
1497395110.92,58586,19.25,73550.5,-1.19,-11.55,-10.01,0,*5F
1497395112.14,58587,19.25,73552.8,-1.19,-10.19,-9.19,0,*66
1497395113.39,58588,19.25,73548.8,-1.19,-9.31,-9.61,0,*54
1497395114.6,58589,19.25,73548.0,-1.21,-9.27,-9.57,0,*5C
1497395115.8,58590,19.25,73546.8,-1.21,-9.27,-9.23,0,*57
1497395117.03,58591,19.25,73536.5,-1.23,-9.45,-8.59,0,*5C
1497395118.26,58592,19.25,73550.5,-1.25,-8.63,-7.43,0,*58
1497395119.49,58593,19.25,73550.3,-1.25,-7.39,-7.31,0,*5C
1497395120.71,58594,19.25,73548.3,-1.25,-7.15,-6.63,0,*53
1497395121.9,58595,19.25,73546.8,-1.25,-6.59,-6.35,0,*58
1497395123.11,58596,19.25,73546.5,-1.25,-6.63,-6.39,0,*5E
1497395124.35,58597,19.25,73548.5,-1.25,-6.63,-6.27,0,*50
1497395125.56,58598,19.25,73552.0,-1.27,-6.43,-6.13,0,*58
1497395126.78,58599,19.25,73550.0,-1.29,-5.89,-5.97,0,*5D
1497395128.03,58600,19.25,73536.3,-1.27,-5.89,-5.39,0,*54
1497395129.28,58601,19.25,73536.5,-1.27,-5.35,-5.11,0,*58
1497395130.55,58602,19.25,73546.3,-1.27,-5.07,-4.81,0,*52
1497395131.79,58603,19.25,73548.0,-1.27,-4.85,-4.41,0,*54
1497395133.01,58604,19.25,73544.3,-1.27,-4.61,-3.95,0,*57
1497395134.24,58605,19.25,73550.5,-1.27,-4.17,-3.71,0,*5D
1497395135.49,58606,19.25,73558.8,-1.27,-3.79,-3.67,0,*56
1497395136.75,58607,19.25,73546.0,-1.27,-3.71,-3.67,0,*5F
1497395138.01,58608,19.25,73548.3,-1.27,-3.67,-3.51,0,*52
1497395139.26,58609,19.25,73546.8,-1.27,-3.55,-3.39,0,*5C
1497395140.5,58610,19.25,73550.8,-1.27,-3.43,-3.19,0,*51
1497395141.72,58611,19.25,73536.8,-1.27,-3.27,-3.19,0,*52
1497395142.93,58612,19.19,73532.8,-1.27,-3.27,-3.19,0,*51
1497395144.12,58613,19.25,73532.0,-1.25,-3.27,-3.15,0,*5E
1497395145.32,58614,19.25,73532.8,-1.25,-3.27,-2.99,0,*5C
1497395146.51,58615,19.25,73546.8,-1.25,-3.11,-2.87,0,*57
1497395147.7,58616,19.25,73510.8,-1.25,-2.91,-2.83,0,*59
1497395148.91,58617,19.25,73524.0,-1.25,-2.83,-2.75,0,*52
1497395150.1,58618,19.25,73534.5,-1.25,-2.91,-2.83,0,*57
1497395151.32,58619,19.25,73522.8,-1.25,-2.87,-2.75,0,*58
1497395152.53,58620,19.25,73522.3,-1.23,-2.87,-2.87,0,*59
1497395153.78,58621,19.25,73528.8,-1.25,-2.75,-2.75,0,*5E
1497395155.02,58622,19.25,73536.0,-1.25,-2.75,-2.75,0,*5D
1497395156.26,58623,19.25,73528.3,-1.25,-2.71,-2.71,0,*5C
1497395157.45,58624,19.25,73538.8,-1.25,-2.83,-2.87,0,*5F
1497395158.64,58625,19.25,73542.0,-1.25,-2.91,-2.99,0,*52
1497395159.86,58626,19.25,73544.3,-1.23,-3.11,-3.03,0,*5C
1497395161.08,58627,19.25,73544.3,-1.23,-3.23,-3.11,0,*5F
1497395162.3,58628,19.19,73538.3,-1.23,-3.11,-2.99,0,*50
1497395163.52,58629,19.25,73536.3,-1.23,-3.03,-2.91,0,*5A
1497395164.74,58630,19.25,73526.8,-1.23,-3.15,-2.99,0,*5D
1497395165.92,58631,19.25,73534.0,-1.25,-2.91,-2.91,0,*5F
1497395167.12,58632,19.25,73528.8,-1.25,-2.99,-2.99,0,*5C
1497395168.31,58633,19.25,73542.3,-1.21,-3.07,-3.11,0,*5E
1497395169.52,58634,19.25,73544.5,-1.25,-3.35,-3.51,0,*58
1497395170.74,58635,19.25,73538.3,-1.23,-3.35,-3.39,0,*51
1497395172.02,58636,19.25,73550.8,-1.23,-3.59,-3.59,0,*5E
1497395173.25,58637,19.25,73542.8,-1.25,-3.59,-3.47,0,*56
1497395174.52,58638,19.25,73536.3,-1.23,-3.51,-3.51,0,*50
1497395175.75,58639,19.25,73548.8,-1.25,-3.51,-3.51,0,*57
1497395176.99,58640,19.25,73532.8,-1.23,-3.75,-3.75,0,*5F
1497395178.23,58641,19.25,73524.3,-1.23,-3.87,-4.01,0,*57
1497395179.48,58642,19.25,73520.0,-1.23,-4.25,-3.59,0,*51
1497395180.73,58643,19.25,73512.3,-1.23,-3.51,-2.87,0,*56
1497395181.97,58644,19.25,73534.8,-1.23,-2.83,-2.71,0,*56
1497395183.24,58645,19.25,73536.8,-1.23,-2.71,-2.71,0,*5A
1497395184.51,58646,19.25,73528.0,-1.19,-2.67,-2.71,0,*57
1497395185.71,58647,19.25,73534.5,-1.21,-2.95,-3.11,0,*57
1497395186.92,58648,19.25,73532.3,-1.21,-3.23,-3.47,0,*57
1497395188.16,58649,19.25,73522.5,-1.19,-3.67,-3.79,0,*50
1497395189.35,58650,19.25,73530.0,-1.21,-4.05,-3.83,0,*55
1497395190.59,58651,19.25,73530.5,-1.21,-3.63,-3.43,0,*5F
1497395191.83,58652,19.25,73546.8,-1.21,-3.59,-3.43,0,*55
1497395193.03,58653,19.19,73548.0,-1.21,-3.79,-3.83,0,*5A
1497395194.25,58654,19.25,73512.5,-1.21,-4.73,-4.13,0,*5E
1497395195.49,58655,19.25,73516.0,-1.19,-4.41,-3.59,0,*5C
1497395196.7,58656,19.25,73524.3,-1.21,-3.63,-3.19,0,*57
1497395197.9,58657,19.19,73516.3,-1.21,-3.31,-3.07,0,*5E
1497395199.1,58658,19.19,73528.0,-1.21,-2.95,-2.95,0,*54
1497395200.29,58659,19.25,73548.0,-1.21,-2.99,-3.31,0,*56
1497395201.51,58660,19.19,73500.5,-1.21,-3.43,-3.95,0,*54
1497395202.71,58661,19.25,73508.0,-1.21,-4.21,-4.25,0,*5A
1497395203.92,58662,19.19,73506.3,-1.21,-4.25,-3.63,0,*58
1497395205.14,58663,19.25,73528.0,-1.21,-3.63,-3.07,0,*5E
1497395206.34,58664,19.19,73514.8,-1.21,-3.35,-2.87,0,*53
1497395207.56,58665,19.19,73518.8,-1.19,-3.15,-2.99,0,*54
1497395208.75,58666,19.19,73512.8,-1.21,-3.23,-3.11,0,*58
1497395209.97,58667,19.19,73512.3,-1.19,-3.03,-3.03,0,*53
1497395211.16,58668,19.25,73516.8,-1.21,-3.07,-2.99,0,*51
1497395212.35,58669,19.25,73516.3,-1.21,-3.07,-3.07,0,*56
1497395213.57,58670,19.19,73516.8,-1.19,-2.79,-2.91,0,*53
1497395214.76,58671,19.25,73516.8,-1.21,-2.87,-2.87,0,*5F
1497395215.95,58672,19.19,73514.5,-1.21,-2.83,-2.83,0,*5C
1497395217.14,58673,19.25,73524.0,-1.21,-2.87,-2.83,0,*59
1497395218.33,58674,19.19,73522.5,-1.21,-2.87,-2.79,0,*5B
1497395219.57,58675,19.19,73520.5,-1.21,-2.71,-2.71,0,*5B
1497395220.78,58676,19.19,73492.0,-1.21,-2.95,-2.95,0,*58
1497395221.96,58677,19.19,73498.8,-1.21,-2.83,-2.83,0,*59
1497395223.21,58678,19.25,73504.8,-1.21,-2.71,-2.55,0,*50
1497395224.45,58679,19.25,73512.3,-1.21,-2.67,-2.67,0,*57
1497395225.7,58680,19.19,73506.0,-1.21,-2.71,-2.67,0,*56
1497395226.92,58681,19.25,73518.8,-1.21,-2.79,-2.71,0,*58
1497395228.19,58682,19.25,73504.8,-1.19,-2.67,-2.67,0,*58
1497395229.43,58683,19.19,73486.8,-1.21,-2.67,-2.67,0,*52
1497395230.65,58684,19.25,73510.8,-1.21,-2.43,-2.51,0,*56
1497395231.9,58685,19.19,73504.3,-1.21,-2.71,-2.71,0,*54
1497395233.14,58686,19.19,73502.0,-1.21,-2.67,-2.67,0,*57
1497395234.34,58687,19.19,73494.5,-1.21,-2.87,-2.83,0,*52
1497395235.58,58688,19.19,73500.8,-1.21,-2.71,-2.71,0,*59
1497395236.82,58689,19.19,73514.3,-1.19,-2.43,-2.55,0,*54
1497395238.07,58690,19.19,73512.8,-1.21,-2.59,-2.67,0,*5D
1497395239.28,58691,19.19,73512.8,-1.19,-2.91,-2.91,0,*5A
1497395240.49,58692,19.25,73514.3,-1.19,-3.07,-3.15,0,*5A
1497395241.7,58693,19.25,73516.0,-1.19,-3.19,-3.39,0,*5A
1497395242.94,58694,19.19,73510.0,-1.21,-3.47,-3.43,0,*50
1497395244.18,58695,19.19,73512.8,-1.19,-3.43,-3.19,0,*51
1497395245.39,58696,19.19,73490.0,-1.21,-3.43,-3.19,0,*59
1497395246.59,58697,19.19,73500.3,-1.21,-3.19,-3.07,0,*58
1497395247.78,58698,19.19,73510.5,-1.21,-3.19,-3.11,0,*50
1497395248.96,58699,19.19,73498.8,-1.21,-3.19,-3.23,0,*50
1497395250.17,58700,19.19,73508.8,-1.19,-3.07,-3.23,0,*55
1497395251.4,58701,19.19,73516.3,-1.23,-3.35,-3.27,0,*58
1497395252.59,58702,19.19,73514.5,-1.21,-3.31,-3.11,0,*58
1497395253.8,58703,19.25,73518.8,-1.19,-3.03,-3.19,0,*5B
1497395255.05,58704,19.25,73512.8,-1.23,-3.47,-3.75,0,*5F
1497395256.33,58705,19.25,73512.8,-1.23,-3.59,-4.81,0,*5D
1497395257.59,58706,19.25,73538.5,-1.23,-4.81,-7.95,0,*5A
1497395258.85,58707,19.19,73522.5,-1.23,-13.33,-15.11,0,*5B
1497395260.13,58708,19.19,73522.3,-1.23,-15.39,-15.81,0,*51
1497395261.38,58709,19.19,73526.8,-1.25,-14.79,-13.61,0,*5B
1497395262.6,58710,19.19,73534.8,-1.25,-10.53,-12.61,0,*5E
1497395263.86,58711,19.19,73532.3,-1.29,-11.81,-10.75,0,*5A
1497395265.05,58712,19.25,73516.3,-1.29,-8.25,-8.85,0,*59
1497395266.31,58713,19.19,73514.5,-1.27,-8.11,-10.05,0,*60
1497395267.57,58714,19.19,73512.0,-1.29,-11.55,-12.79,0,*58
1497395268.76,58715,19.25,73506.8,-1.29,-11.45,-9.31,0,*6E
1497395269.98,58716,19.19,73514.5,-1.29,-8.75,-9.57,0,*56
1497395271.21,58717,19.19,73518.3,-1.29,-10.45,-11.67,0,*57
1497395272.44,58718,19.25,73516.8,-1.29,-11.85,-13.11,0,*56
1497395273.71,58719,19.19,73510.0,-1.31,-12.83,-12.57,0,*58
1497395274.94,58720,19.19,73518.3,-1.31,-12.43,-12.47,0,*5F
1497395276.22,58721,19.19,73516.0,-1.31,-12.35,-11.63,0,*5A
1497395277.51,58722,19.19,73502.5,-1.35,-11.73,-10.75,0,*5A
1497395278.74,58723,19.19,73514.8,-1.35,-9.83,-8.17,0,*50
1497395280.01,58724,19.19,73522.5,-1.35,-7.65,-6.23,0,*58
1497395281.25,58725,19.19,73520.0,-1.35,-6.43,-5.77,0,*5E
1497395282.5,58726,19.19,73536.0,-1.39,-6.27,-5.47,0,*50
1497395283.77,58727,19.25,73542.5,-1.39,-5.73,-4.81,0,*58
1497395285.02,58728,19.19,73532.8,-1.39,-5.31,-4.29,0,*53
1497395286.23,58729,19.19,73528.0,-1.39,-4.53,-3.87,0,*54
1497395287.47,58730,19.19,73502.8,-1.39,-4.13,-4.01,0,*51
1497395288.75,58731,19.19,73526.5,-1.39,-3.71,-4.01,0,*53
1497395290.02,58732,19.19,73518.0,-1.39,-4.01,-4.01,0,*50
1497395291.29,58733,19.19,73514.5,-1.35,-4.01,-3.67,0,*5A
1497395292.51,58734,19.25,73516.3,-1.39,-3.87,-3.75,0,*5B
1497395293.74,58735,19.25,73528.3,-1.31,-3.95,-3.83,0,*58
1497395294.98,58736,19.19,73528.0,-1.35,-3.75,-3.71,0,*5C
1497395296.21,58737,19.25,73530.3,-1.35,-3.83,-4.09,0,*5C
1497395297.46,58738,19.19,73528.8,-1.35,-4.01,-4.25,0,*50
1497395298.69,58739,19.19,73526.5,-1.35,-4.21,-4.37,0,*50
1497395299.94,58740,19.19,73540.3,-1.31,-4.61,-5.03,0,*58
1497395301.19,58741,19.19,73520.8,-1.35,-5.55,-5.69,0,*57
1497395302.42,58742,19.19,73528.5,-1.35,-6.55,-5.39,0,*52
1497395303.66,58743,19.19,73534.3,-1.31,-5.77,-4.65,0,*5C
1497395304.88,58744,19.19,73534.8,-1.31,-4.99,-4.61,0,*5E
1497395306.12,58745,19.19,73534.5,-1.35,-4.85,-4.37,0,*55
1497395307.34,58746,19.19,73528.8,-1.35,-4.61,-4.13,0,*5A